Regional Weather Roundup
Issued by NWS

Home | Current Version | Previous Version | Graphics & Text | Print | Product List | Glossary On
Versions: 1 2 3 4 5 6 7 8 9 10 11 12 13 14 15 16 17 18 19 20 21 22 23 24 25 26 27 28 29 30 31 32 33 34 35 36 37 38 39 40 41 42 43 44 45 46 47 48 49 50
000
ASUS45 KABQ 230810
RWRNM
NEW MEXICO REGIONAL WEATHER ROUNDUP
NATIONAL WEATHER SERVICE ALBUQUERQUE NM
100 AM MST TUE JAN 23 2018

NOTE: "FAIR" MEANS FEW OR NO CLOUDS BELOW 12,000 FEET AGL WITH NO
       SIGNIFICANT WEATHER OR OBSTRUCTIONS TO VISION.

      THIS PRODUCT IS RELEASED AS TWO VERSIONS.  ONE VERSION NEAR
      THE TOP OF THE HOUR CONTAINING PRELIMINARY DATA FROM ALBUQUERQUE
      AND OTHER STATIONS.  A FINAL VERSION WITH ADDITIONAL DATA IS
      ISSUED ABOUT 10 MINUTES AFTER THE HOUR.

NMZ501-503-504-510>518-230900-
NORTHWEST PLATEAU/NORTHCENTRAL MOUNTAINS

CITY           SKY/WX    TMP DP  RH WIND       PRES   REMARKS
FARMINGTON     FAIR      14  11  87 NE5       30.26S WCI   6
LOS ALAMOS     FAIR      23   4  44 CALM      30.19F
SANTA FE       FAIR      17  11  77 N13       30.19S WCI   4
TAOS           FAIR       1  -2  87 MISG      30.23F
ANGEL FIRE     FAIR     -13 -18  79 CALM      30.18F

$$
NMZ402-403-502-505>509-230900-
WESTCENTRAL MOUNTAINS/SOUTHWEST MOUNTAINS

CITY           SKY/WX    TMP DP  RH WIND       PRES   REMARKS
GALLUP         FAIR       5   0  79 CALM      30.24F
GRANTS         FAIR       9   0  65 NW7       30.26S WCI  -2
SILVER CITY    FAIR      21   0  40 N10       30.18F WCI  10

$$
NMZ407-409-411-412-230900-
SOUTHERN DESERTS

CITY           SKY/WX    TMP DP  RH WIND       PRES   REMARKS
DEMING         FAIR      23   0  36 CALM      30.20S
LAS CRUCES     FAIR      29  -1  27 N6        30.20S WCI  23
HOLLOMAN AFB   FAIR      22  -1  36 E3        30.22F
ALAMOGORDO     FAIR      27   1  33 CALM      30.20F
T OR C         FAIR      28   2  32 NW9       30.20S WCI  19

$$
NMZ519>523-230900-
CENTRAL VALLEYS/CENTRAL HIGHLANDS

CITY           SKY/WX    TMP DP  RH WIND       PRES   REMARKS
ALBUQUERQUE    FAIR      21   8  57 E3        30.23S
MORIARTY ARPT  FAIR       6   0  74 CALM      30.21S
CLINES CORNERS FAIR      16   6  65 NW15      30.16F WCI   1
BELEN          FAIR      21   8  56 N9        30.23F WCI  11
SOCORRO        FAIR      23   4  45 N6        30.23F WCI  15

$$
NMZ524>526-539-540-230900-
SOUTHCENTRAL MOUNTAINS

CITY           SKY/WX    TMP DP  RH WIND       PRES   REMARKS
RUIDOSO        NOT AVBL

$$
NMZ527>531-230900-
NORTHEAST HIGHLANDS/NORTHEAST PLAINS

CITY           SKY/WX    TMP DP  RH WIND       PRES   REMARKS
LAS VEGAS      FAIR      20  -8  28 NE3       30.13F
RATON          FAIR      12  -2  53 N6        30.12F WCI   3
CLAYTON        FAIR      19   3  49 NW8       30.13F WCI   9

$$
NMZ532>537-230900-
EASTCENTRAL PLAINS

CITY           SKY/WX    TMP DP  RH WIND       PRES   REMARKS
TUCUMCARI      FAIR      25   2  37 W7        30.12F WCI  17
CANNON AFB     FAIR      28   1  30 NW9       30.17F WCI  19
CLOVIS AIRPORT FAIR      22   3  44 W9        30.17S WCI  12

$$
NMZ028-029-538-230900-
SOUTHEAST PLAINS

CITY           SKY/WX    TMP DP  RH WIND       PRES   REMARKS
ROSWELL        FAIR      31   3  30 NW3       30.18F
ARTESIA        FAIR      28   1  31 N6        30.20S WCI  22
CARLSBAD       FAIR      31   6  35 NW3       30.18S
HOBBS          FAIR      23   0  36 NW7       30.18F WCI  15


$$




USA.gov is the U.S. government's official web portal to all federal, state and local government web resources and services.